This is the latest recevied weather packets stored in our database for station/object YD2CLX-15. If no packets are shown the sender has not sent any weather packets the latest 10 day(s).
| Time | Temp. | Humidity | Pressure | Rain* | Wind** | Luminosity | Snow |
|---|---|---|---|---|---|---|---|
| 1788150633 | 78° F | 100% | 760.6 mmHg | 0 in | - | - | - |
| 1788149733 | 73° F | 100% | 762.1 mmHg | 0 in | - | - | - |
| 1788148834 | 75° F | 100% | 761.3 mmHg | 0 in | - | - | - |
| 1788147933 | 77° F | 100% | 762.1 mmHg | 0 in | - | - | - |
| 1788147033 | 71° F | 100% | 762.1 mmHg | 0 in | - | - | - |
| 1788146133 | 73° F | 100% | 762.8 mmHg | 0 in | - | - | - |
| 1788145234 | 75° F | 100% | 762.8 mmHg | 0 in | - | - | - |
| 1788144333 | 77° F | 100% | 762.8 mmHg | 0 in | - | - | - |
| 1788143433 | 71° F | 100% | 762.8 mmHg | 0 in | - | - | - |
| 1788142533 | 73° F | 100% | 762.8 mmHg | 0 in | - | - | - |
| 1788141633 | 75° F | 100% | 762.8 mmHg | 0 in | - | - | - |
| 1788140733 | 77° F | 100% | 762.8 mmHg | 0 in | - | - | - |
| 1788139833 | 68° F | 81% | 762.8 mmHg | 0 in | - | - | - |
| 1788138933 | 64° F | 81% | 762.8 mmHg | 0 in | - | - | - |
| 1788138033 | 66° F | 81% | 762.8 mmHg | 0 in | - | - | - |
| 1788137133 | 68° F | 81% | 762.8 mmHg | 0 in | - | - | - |
| 1788136233 | 61° F | 82% | 762.8 mmHg | 0 in | - | - | - |
| 1788135333 | 63° F | 82% | 762.1 mmHg | 0 in | - | - | - |
| 1788134434 | 58° F | 83% | 762.1 mmHg | 0 in | - | - | - |
| 1788133533 | 60° F | 83% | 762.1 mmHg | 0 in | - | - | - |
| 1788132634 | 62° F | 83% | 762.1 mmHg | 0 in | - | - | - |
| 1788131733 | 51° F | 86% | 762.1 mmHg | 0 in | - | - | - |
| 1788130834 | 53° F | 86% | 762.1 mmHg | 0 in | - | - | - |
| 1788129933 | 55° F | 86% | 762.1 mmHg | 0 in | - | - | - |
| 1788129034 | 57° F | 86% | 762.1 mmHg | 0 in | - | - | - |
* Rain latest hour (hover to see other rain measurements)
** Current wind speed in m/s (hover to see current wind gust speed)